Time,TemperatureF,DewpointF,PressureIn,WindDirection,WindDirectionDegrees,WindSpeedMPH,WindSpeedGustMPH,Humidity,HourlyPrecipIn,Conditions,Clouds,dailyrainin,SoftwareType,DateUTC
2013-07-07 00:01:00,66.0,55.0,29.90,North,360,0.0,-999.0,67,-99.99,,,-99.99,,2013-07-07 07:01:00,
2013-07-07 00:11:00,66.0,55.0,29.90,NW,325,0.0,-999.0,67,-99.99,,,-99.99,,2013-07-07 07:11:00,
2013-07-07 00:22:00,66.0,55.0,29.91,NNE,24,0.0,-999.0,68,-99.99,,,-99.99,,2013-07-07 07:22:00,
2013-07-07 00:33:00,65.0,55.0,29.90,NE,53,0.0,-999.0,69,-99.99,,,-99.99,,2013-07-07 07:33:00,
2013-07-07 00:43:00,65.0,55.0,29.90,NNE,20,0.0,-999.0,69,-99.99,,,-99.99,,2013-07-07 07:43:00,
2013-07-07 00:52:00,65.0,55.0,29.90,ENE,57,0.0,-999.0,69,-99.99,,,-99.99,,2013-07-07 07:52:00,
2013-07-07 01:02:00,65.0,55.0,29.90,ENE,58,0.0,-999.0,71,-99.99,,,-99.99,,2013-07-07 08:02:00,
2013-07-07 01:12:00,64.0,55.0,29.90,ENE,58,0.0,-999.0,73,-99.99,,,-99.99,,2013-07-07 08:12:00,
2013-07-07 01:21:00,64.0,55.0,29.90,ENE,58,0.0,-999.0,73,-99.99,,,-99.99,,2013-07-07 08:21:00,
2013-07-07 01:33:00,63.0,55.0,29.90,ENE,58,0.0,-999.0,75,-99.99,,,-99.99,,2013-07-07 08:33:00,
2013-07-07 01:43:00,63.0,55.0,29.90,ENE,58,0.0,-999.0,75,-99.99,,,-99.99,,2013-07-07 08:43:00,
2013-07-07 01:53:00,63.0,55.0,29.90,ENE,58,0.0,-999.0,75,-99.99,,,-99.99,,2013-07-07 08:53:00,
2013-07-07 02:02:00,62.0,54.0,29.90,ENE,58,0.0,-999.0,75,-99.99,,,-99.99,,2013-07-07 09:02:00,
2013-07-07 02:12:00,63.0,55.0,29.90,ENE,58,0.0,-999.0,75,-99.99,,,-99.99,,2013-07-07 09:12:00,
2013-07-07 02:22:00,63.0,55.0,29.90,ENE,58,0.0,-999.0,75,-99.99,,,-99.99,,2013-07-07 09:22:00,
2013-07-07 02:34:00,62.0,55.0,29.90,ENE,58,0.0,-999.0,78,-99.99,,,-99.99,,2013-07-07 09:34:00,
2013-07-07 02:43:00,62.0,55.0,29.90,ENE,58,0.0,-999.0,78,-99.99,,,-99.99,,2013-07-07 09:43:00,
2013-07-07 02:53:00,62.0,55.0,29.90,ENE,58,0.0,-999.0,78,-99.99,,,-99.99,,2013-07-07 09:53:00,
2013-07-07 03:03:00,62.0,56.0,29.90,ENE,58,0.0,-999.0,80,-99.99,,,-99.99,,2013-07-07 10:03:00,
2013-07-07 03:11:00,62.0,56.0,29.90,ENE,58,0.0,-999.0,82,-99.99,,,-99.99,,2013-07-07 10:11:00,
2013-07-07 03:22:00,62.0,56.0,29.90,ENE,58,0.0,-999.0,82,-99.99,,,-99.99,,2013-07-07 10:22:00,
2013-07-07 03:32:00,63.0,57.0,29.90,ENE,58,0.0,-999.0,82,-99.99,,,-99.99,,2013-07-07 10:32:00,
2013-07-07 03:43:00,62.0,57.0,29.90,ENE,58,0.0,-999.0,83,-99.99,,,-99.99,,2013-07-07 10:43:00,
2013-07-07 03:52:00,62.0,57.0,29.90,ENE,58,0.0,-999.0,84,-99.99,,,-99.99,,2013-07-07 10:52:00,
2013-07-07 04:02:00,62.0,57.0,29.90,ENE,58,0.0,-999.0,85,-99.99,,,-99.99,,2013-07-07 11:02:00,
2013-07-07 04:11:00,61.0,57.0,29.90,ENE,58,0.0,-999.0,86,-99.99,,,-99.99,,2013-07-07 11:11:00,
2013-07-07 04:22:00,61.0,57.0,29.90,ENE,58,0.0,-999.0,86,-99.99,,,-99.99,,2013-07-07 11:22:00,
2013-07-07 04:33:00,61.0,57.0,29.90,ENE,58,0.0,-999.0,87,-99.99,,,-99.99,,2013-07-07 11:33:00,
2013-07-07 04:43:00,61.0,57.0,29.90,ENE,58,0.0,-999.0,87,-99.99,,,-99.99,,2013-07-07 11:43:00,
2013-07-07 04:53:00,60.0,56.0,29.91,ENE,58,0.0,-999.0,87,-99.99,,,-99.99,,2013-07-07 11:53:00,
2013-07-07 05:02:00,60.0,56.0,29.91,ENE,58,0.0,-999.0,88,-99.99,,,-99.99,,2013-07-07 12:02:00,
2013-07-07 05:11:00,60.0,56.0,29.91,ENE,58,0.0,-999.0,88,-99.99,,,-99.99,,2013-07-07 12:11:00,
2013-07-07 05:22:00,60.0,56.0,29.92,ENE,58,0.0,-999.0,88,-99.99,,,-99.99,,2013-07-07 12:22:00,
2013-07-07 05:34:00,60.0,57.0,29.92,ENE,58,0.0,-999.0,89,-99.99,,,-99.99,,2013-07-07 12:34:00,
2013-07-07 05:43:00,60.0,57.0,29.92,ENE,58,0.0,-999.0,89,-99.99,,,-99.99,,2013-07-07 12:43:00,
2013-07-07 05:52:00,60.0,57.0,29.92,ENE,58,0.0,-999.0,90,-99.99,,,-99.99,,2013-07-07 12:52:00,
2013-07-07 06:02:00,60.0,57.0,29.92,ENE,58,0.0,-999.0,90,-99.99,,,-99.99,,2013-07-07 13:02:00,
2013-07-07 06:11:00,60.0,57.0,29.93,ENE,58,0.0,-999.0,91,-99.99,,,-99.99,,2013-07-07 13:11:00,
2013-07-07 06:34:00,60.0,57.0,29.93,ENE,58,0.0,-999.0,90,-99.99,,,-99.99,,2013-07-07 13:34:00,
2013-07-07 06:43:00,61.0,58.0,29.93,South,178,0.0,-999.0,89,-99.99,,,-99.99,,2013-07-07 13:43:00,
2013-07-07 06:52:00,61.0,57.0,29.93,South,174,0.0,-999.0,88,-99.99,,,-99.99,,2013-07-07 13:52:00,
2013-07-07 07:02:00,62.0,59.0,29.93,ESE,120,0.0,-999.0,89,-99.99,,,-99.99,,2013-07-07 14:02:00,
2013-07-07 07:12:00,61.0,58.0,29.94,SSE,165,0.0,-999.0,89,-99.99,,,-99.99,,2013-07-07 14:12:00,
2013-07-07 07:22:00,61.0,58.0,29.94,SSE,165,0.0,-999.0,89,-99.99,,,-99.99,,2013-07-07 14:22:00,
2013-07-07 07:33:00,61.0,58.0,29.94,SSE,165,0.0,-999.0,90,-99.99,,,-99.99,,2013-07-07 14:33:00,
2013-07-07 07:43:00,61.0,58.0,29.94,South,170,0.0,-999.0,90,-99.99,,,-99.99,,2013-07-07 14:43:00,
2013-07-07 07:53:00,62.0,59.0,29.94,SSE,153,0.0,-999.0,89,-99.99,,,-99.99,,2013-07-07 14:53:00,
2013-07-07 08:02:00,62.0,58.0,29.94,South,179,0.0,-999.0,88,-99.99,,,-99.99,,2013-07-07 15:02:00,
2013-07-07 08:11:00,62.0,58.0,29.95,South,187,0.0,-999.0,88,-99.99,,,-99.99,,2013-07-07 15:11:00,
2013-07-07 08:22:00,62.0,58.0,29.95,SSE,159,0.0,-999.0,87,-99.99,,,-99.99,,2013-07-07 15:22:00,
2013-07-07 08:33:00,61.0,57.0,29.95,SSE,160,0.0,-999.0,88,-99.99,,,-99.99,,2013-07-07 15:33:00,
2013-07-07 08:43:00,60.0,57.0,29.95,South,189,1.0,-999.0,89,-99.99,,,-99.99,,2013-07-07 15:43:00,
2013-07-07 08:52:00,61.0,57.0,29.96,SE,146,0.0,-999.0,88,-99.99,,,-99.99,,2013-07-07 15:52:00,
2013-07-07 09:01:00,60.0,57.0,29.96,SSE,158,0.0,-999.0,89,-99.99,,,-99.99,,2013-07-07 16:01:00,
2013-07-07 09:11:00,60.0,57.0,29.96,SSE,154,0.0,-999.0,89,-99.99,,,-99.99,,2013-07-07 16:11:00,
2013-07-07 09:22:00,60.0,57.0,29.95,ESE,123,0.0,-999.0,89,-99.99,,,-99.99,,2013-07-07 16:22:00,
2013-07-07 09:43:00,61.0,58.0,29.96,SSE,157,0.0,-999.0,89,-99.99,,,-99.99,,2013-07-07 16:43:00,
2013-07-07 09:53:00,61.0,58.0,29.96,SSE,157,0.0,-999.0,89,-99.99,,,-99.99,,2013-07-07 16:53:00,
2013-07-07 10:01:00,61.0,57.0,29.96,SE,128,0.0,-999.0,88,-99.99,,,-99.99,,2013-07-07 17:01:00,
2013-07-07 10:11:00,61.0,57.0,29.96,South,171,0.0,-999.0,88,-99.99,,,-99.99,,2013-07-07 17:11:00,
2013-07-07 10:22:00,61.0,57.0,29.96,SSE,165,0.0,-999.0,87,-99.99,,,-99.99,,2013-07-07 17:22:00,
2013-07-07 10:34:00,61.0,57.0,29.96,South,173,0.0,-999.0,88,-99.99,,,-99.99,,2013-07-07 17:34:00,
2013-07-07 10:43:00,61.0,57.0,29.96,SE,126,0.0,-999.0,88,-99.99,,,-99.99,,2013-07-07 17:43:00,
2013-07-07 10:53:00,62.0,58.0,29.96,South,173,0.0,-999.0,87,-99.99,,,-99.99,,2013-07-07 17:53:00,
2013-07-07 11:01:00,62.0,58.0,29.96,South,178,0.0,-999.0,88,-99.99,,,-99.99,,2013-07-07 18:01:00,
2013-07-07 11:11:00,62.0,58.0,29.96,South,184,0.0,-999.0,87,-99.99,,,-99.99,,2013-07-07 18:11:00,
2013-07-07 11:22:00,63.0,59.0,29.96,SSW,203,0.0,-999.0,86,-99.99,,,-99.99,,2013-07-07 18:22:00,
2013-07-07 11:33:00,63.0,59.0,29.96,WSW,252,0.0,-999.0,87,-99.99,,,-99.99,,2013-07-07 18:33:00,
2013-07-07 11:43:00,63.0,58.0,29.96,SSE,165,0.0,-999.0,85,-99.99,,,-99.99,,2013-07-07 18:43:00,
2013-07-07 11:52:00,64.0,59.0,29.96,WSW,246,0.0,-999.0,85,-99.99,,,-99.99,,2013-07-07 18:52:00,
2013-07-07 12:01:00,64.0,59.0,29.96,SSW,209,1.0,-999.0,83,-99.99,,,-99.99,,2013-07-07 19:01:00,
2013-07-07 12:11:00,65.0,59.0,29.96,SSE,168,0.0,-999.0,81,-99.99,,,-99.99,,2013-07-07 19:11:00,
2013-07-07 12:22:00,65.0,59.0,29.96,WSW,244,1.0,-999.0,81,-99.99,,,-99.99,,2013-07-07 19:22:00,
2013-07-07 12:33:00,67.0,60.0,29.95,SSE,157,1.0,-999.0,78,-99.99,,,-99.99,,2013-07-07 19:33:00,
2013-07-07 12:43:00,67.0,60.0,29.95,SSE,155,1.0,-999.0,77,-99.99,,,-99.99,,2013-07-07 19:43:00,
2013-07-07 12:54:00,67.0,60.0,29.95,South,173,2.0,-999.0,77,-99.99,,,-99.99,,2013-07-07 19:54:00,
2013-07-07 13:02:00,66.0,59.0,29.95,SSE,161,1.0,-999.0,78,-99.99,,,-99.99,,2013-07-07 20:02:00,
2013-07-07 13:11:00,66.0,59.0,29.95,South,181,1.0,-999.0,77,-99.99,,,-99.99,,2013-07-07 20:11:00,
2013-07-07 13:22:00,68.0,61.0,29.95,SSW,201,1.0,-999.0,77,-99.99,,,-99.99,,2013-07-07 20:22:00,
2013-07-07 13:33:00,66.0,59.0,29.95,SSE,165,1.0,-999.0,77,-99.99,,,-99.99,,2013-07-07 20:33:00,
2013-07-07 13:42:00,69.0,62.0,29.94,SSE,151,1.0,-999.0,79,-99.99,,,-99.99,,2013-07-07 20:42:00,
2013-07-07 13:52:00,70.0,61.0,29.94,SSE,163,1.0,-999.0,73,-99.99,,,-99.99,,2013-07-07 20:52:00,
2013-07-07 14:02:00,70.0,61.0,29.94,ESE,123,1.0,-999.0,72,-99.99,,,-99.99,,2013-07-07 21:02:00,
2013-07-07 14:11:00,71.0,61.0,29.93,SE,129,1.0,-999.0,70,-99.99,,,-99.99,,2013-07-07 21:11:00,
2013-07-07 14:22:00,70.0,59.0,29.93,SE,142,1.0,-999.0,69,-99.99,,,-99.99,,2013-07-07 21:22:00,
2013-07-07 14:33:00,71.0,62.0,29.93,SSE,153,1.0,-999.0,72,-99.99,,,-99.99,,2013-07-07 21:33:00,
2013-07-07 14:43:00,71.0,62.0,29.93,SSE,153,1.0,-999.0,72,-99.99,,,-99.99,,2013-07-07 21:43:00,
2013-07-07 14:53:00,70.0,61.0,29.93,SE,130,0.0,-999.0,72,-99.99,,,-99.99,,2013-07-07 21:53:00,
2013-07-07 15:01:00,70.0,61.0,29.93,SE,136,0.0,-999.0,72,-99.99,,,-99.99,,2013-07-07 22:01:00,
2013-07-07 15:11:00,71.0,62.0,29.93,SSW,206,0.0,-999.0,73,-99.99,,,-99.99,,2013-07-07 22:11:00,
2013-07-07 15:22:00,71.0,61.0,29.92,SE,132,0.0,-999.0,71,-99.99,,,-99.99,,2013-07-07 22:22:00,
2013-07-07 15:33:00,71.0,61.0,29.92,SE,142,1.0,-999.0,70,-99.99,,,-99.99,,2013-07-07 22:33:00,
2013-07-07 15:43:00,71.0,60.0,29.92,SSE,147,0.0,-999.0,69,-99.99,,,-99.99,,2013-07-07 22:43:00,
2013-07-07 15:53:00,72.0,61.0,29.92,SE,134,0.0,-999.0,69,-99.99,,,-99.99,,2013-07-07 22:53:00,
2013-07-07 16:01:00,72.0,62.0,29.91,NNW,342,1.0,-999.0,70,-99.99,,,-99.99,,2013-07-07 23:01:00,
2013-07-07 16:11:00,72.0,61.0,29.91,NW,323,1.0,-999.0,69,-99.99,,,-99.99,,2013-07-07 23:11:00,
2013-07-07 16:22:00,72.0,60.0,29.91,SSE,166,1.0,-999.0,65,-99.99,,,-99.99,,2013-07-07 23:22:00,
2013-07-07 16:33:00,72.0,60.0,29.91,ESE,119,0.0,-999.0,67,-99.99,,,-99.99,,2013-07-07 23:33:00,
2013-07-07 16:43:00,73.0,61.0,29.91,WSW,244,0.0,-999.0,67,-99.99,,,-99.99,,2013-07-07 23:43:00,
2013-07-07 16:52:00,73.0,61.0,29.91,WSW,243,1.0,-999.0,67,-99.99,,,-99.99,,2013-07-07 23:52:00,
2013-07-07 17:01:00,74.0,61.0,29.90,NW,325,0.0,-999.0,65,-99.99,,,-99.99,,2013-07-08 00:01:00,
2013-07-07 17:11:00,74.0,61.0,29.90,NW,311,0.0,-999.0,65,-99.99,,,-99.99,,2013-07-08 00:11:00,
2013-07-07 17:22:00,74.0,61.0,29.90,South,180,0.0,-999.0,65,-99.99,,,-99.99,,2013-07-08 00:22:00,
2013-07-07 17:33:00,75.0,62.0,29.89,SE,129,0.0,-999.0,63,-99.99,,,-99.99,,2013-07-08 00:33:00,
2013-07-07 17:43:00,74.0,61.0,29.89,West,265,0.0,-999.0,64,-99.99,,,-99.99,,2013-07-08 00:43:00,
2013-07-07 17:53:00,75.0,61.0,29.89,NE,43,0.0,-999.0,61,-99.99,,,-99.99,,2013-07-08 00:53:00,
2013-07-07 18:01:00,75.0,61.0,29.88,NNW,327,0.0,-999.0,61,-99.99,,,-99.99,,2013-07-08 01:01:00,
2013-07-07 18:11:00,74.0,61.0,29.88,West,259,0.0,-999.0,63,-99.99,,,-99.99,,2013-07-08 01:11:00,
2013-07-07 18:21:00,74.0,60.0,29.88,West,259,0.0,-999.0,62,-99.99,,,-99.99,,2013-07-08 01:21:00,
2013-07-07 18:32:00,73.0,60.0,29.88,WSW,258,0.0,-999.0,63,-99.99,,,-99.99,,2013-07-08 01:32:00,
2013-07-07 18:42:00,73.0,60.0,29.88,NW,315,0.0,-999.0,64,-99.99,,,-99.99,,2013-07-08 01:42:00,
2013-07-07 18:52:00,73.0,60.0,29.88,SW,227,0.0,-999.0,63,-99.99,,,-99.99,,2013-07-08 01:52:00,
2013-07-07 19:02:00,73.0,60.0,29.88,SE,134,0.0,-999.0,63,-99.99,,,-99.99,,2013-07-08 02:02:00,
2013-07-07 19:11:00,73.0,60.0,29.88,SE,141,0.0,-999.0,64,-99.99,,,-99.99,,2013-07-08 02:11:00,
2013-07-07 19:22:00,73.0,60.0,29.88,SSE,159,0.0,-999.0,64,-99.99,,,-99.99,,2013-07-08 02:22:00,
2013-07-07 19:33:00,73.0,61.0,29.89,SSE,159,0.0,-999.0,65,-99.99,,,-99.99,,2013-07-08 02:33:00,
2013-07-07 19:42:00,73.0,61.0,29.89,SSE,160,0.0,-999.0,66,-99.99,,,-99.99,,2013-07-08 02:42:00,
2013-07-07 19:52:00,73.0,61.0,29.89,SSE,160,0.0,-999.0,67,-99.99,,,-99.99,,2013-07-08 02:52:00,
2013-07-07 20:01:00,72.0,60.0,29.89,SSE,161,0.0,-999.0,67,-99.99,,,-99.99,,2013-07-08 03:01:00,
2013-07-07 20:11:00,72.0,61.0,29.90,South,172,0.0,-999.0,68,-99.99,,,-99.99,,2013-07-08 03:11:00,
2013-07-07 20:22:00,72.0,61.0,29.90,South,173,0.0,-999.0,69,-99.99,,,-99.99,,2013-07-08 03:22:00,
2013-07-07 20:33:00,72.0,62.0,29.90,SSE,150,0.0,-999.0,71,-99.99,,,-99.99,,2013-07-08 03:33:00,
2013-07-07 20:42:00,71.0,62.0,29.90,ESE,123,0.0,-999.0,72,-99.99,,,-99.99,,2013-07-08 03:42:00,
2013-07-07 20:52:00,71.0,62.0,29.91,ESE,123,0.0,-999.0,74,-99.99,,,-99.99,,2013-07-08 03:52:00,
2013-07-07 21:01:00,70.0,62.0,29.91,ESE,123,0.0,-999.0,75,-99.99,,,-99.99,,2013-07-08 04:01:00,
2013-07-07 21:11:00,69.0,61.0,29.91,ESE,123,0.0,-999.0,76,-99.99,,,-99.99,,2013-07-08 04:11:00,
2013-07-07 21:22:00,69.0,61.0,29.91,ESE,123,0.0,-999.0,77,-99.99,,,-99.99,,2013-07-08 04:22:00,
2013-07-07 21:33:00,69.0,61.0,29.91,ESE,123,0.0,-999.0,77,-99.99,,,-99.99,,2013-07-08 04:33:00,
2013-07-07 21:42:00,70.0,62.0,29.91,SSE,155,0.0,-999.0,76,-99.99,,,-99.99,,2013-07-08 04:42:00,
2013-07-07 21:52:00,69.0,62.0,29.92,SSE,155,0.0,-999.0,78,-99.99,,,-99.99,,2013-07-08 04:52:00,
2013-07-07 22:01:00,69.0,62.0,29.92,SSE,155,0.0,-999.0,78,-99.99,,,-99.99,,2013-07-08 05:01:00,
2013-07-07 22:11:00,69.0,62.0,29.92,SSE,155,0.0,-999.0,79,-99.99,,,-99.99,,2013-07-08 05:11:00,
2013-07-07 22:21:00,68.0,61.0,29.92,SSE,155,0.0,-999.0,79,-99.99,,,-99.99,,2013-07-08 05:21:00,
2013-07-07 22:33:00,68.0,62.0,29.93,SSE,155,0.0,-999.0,80,-99.99,,,-99.99,,2013-07-08 05:33:00,
2013-07-07 22:43:00,68.0,62.0,29.93,SE,142,0.0,-999.0,80,-99.99,,,-99.99,,2013-07-08 05:43:00,
2013-07-07 22:53:00,68.0,61.0,29.93,SE,142,0.0,-999.0,79,-99.99,,,-99.99,,2013-07-08 05:53:00,
2013-07-07 23:01:00,67.0,60.0,29.93,SE,138,0.0,-999.0,79,-99.99,,,-99.99,,2013-07-08 06:01:00,
2013-07-07 23:11:00,67.0,60.0,29.93,SE,137,0.0,-999.0,79,-99.99,,,-99.99,,2013-07-08 06:11:00,
2013-07-07 23:22:00,67.0,61.0,29.93,SE,137,0.0,-999.0,80,-99.99,,,-99.99,,2013-07-08 06:22:00,
2013-07-07 23:33:00,67.0,60.0,29.93,SE,137,0.0,-999.0,79,-99.99,,,-99.99,,2013-07-08 06:33:00,
2013-07-07 23:42:00,66.0,60.0,29.94,SSE,148,0.0,-999.0,81,-99.99,,,-99.99,,2013-07-08 06:42:00,
2013-07-07 23:52:00,65.0,59.0,29.94,SSE,148,0.0,-999.0,81,-99.99,,,-99.99,,2013-07-08 06:52:00,